Volver al catálogo

SL-8 DEB

ActivoLEO
NORAD 19261·DEBRIS·🇷🇺 Russia

Lanzado Jun 21, 1988 desde Plesetsk Cosmodrome

Loading…

Próximos Pases (próximas 24 horas)

TLE

ActualizadoSource: Space-Track

Época: Sep 14, 2026, 05:47 UTC

1 19261U 88053D   26257.24119406  .00001247  00000-0  26336-3 0  9999
2 19261  74.0516 183.1380 0009602 343.2684 167.2589 14.60422538 13877

Sigue SL-8 DEB en tiempo real con AllMySat

Download on the App Store